Probability
52 49 46 46 44 40 34 27 22 18 16 17 19 18 16 15 15 16 18 19 17 14 10 9 8 7 8 6 4 3 3 3 3 2 1 0 0 0 0 0 0 0 0
57 56 51 48 44 39 34 29 25 20 17 18 19 19 17 15 15 16 17 17 14 11 8 8 8 8 7 5 3 2 3 3 2 2 1 0 0 0 0 0 0 0 0
62 62 57 49 43 38 34 32 30 24 19 18 19 20 19 16 15 15 15 12 9 8 7 6 7 7 6 4 1 1 2 1 1 1 0 0 0 0 0 0 0 0 0
63 63 59 52 45 39 36 35 33 26 19 18 19 20 19 16 13 13 12 9 6 6 6 6 6 6 5 3 1 0 0 0 0 0 0 0 0 0 0 0 0 0 0
65 64 62 56 50 45 42 40 36 27 20 19 20 19 16 12 9 9 9 8 6 6 6 6 5 4 3 1 0 0 0 0 0 0 0 0 0 0 0 0 0 0 0
70 67 66 63 58 55 51 46 40 32 27 25 22 18 12 7 5 5 6 8 9 8 6 5 3 1 1 0 0 0 0 0 0 0 0 0 0 0 0 0 0 0 0
73 72 71 69 67 64 58 51 47 40 35 31 25 18 12 6 3 2 3 8 12 12 9 6 4 2 1 1 1 0 0 0 0 0 0 0 0 0 0 0 0 0 0
74 75 75 74 73 70 65 60 55 46 39 34 27 20 14 8 3 0 1 6 13 14 11 9 8 6 4 3 2 1 0 0 0 0 0 0 0 0 0 0 0 0 0
78 78 78 76 75 73 69 64 56 47 41 36 29 24 20 12 5 0 1 5 11 12 11 10 9 7 4 2 2 1 0 0 0 0 0 0 0 0 0 0 0 0 0
82 82 80 77 75 72 68 61 53 46 42 37 32 29 24 17 8 1 1 5 10 10 10 9 7 4 1 0 1 1 1 0 0 0 0 0 0 0 0 0 0 0 0
85 83 79 74 69 67 66 61 52 47 44 38 34 31 26 18 9 3 1 4 7 9 9 8 5 1 0 0 1 1 1 0 0 0 0 0 0 0 0 0 0 0 0
81 78 74 68 63 61 62 60 55 50 45 39 34 30 23 17 10 4 1 1 3 5 6 5 4 1 0 0 0 0 0 0 0 0 0 0 0 0 0 0 0 0 0
75 72 68 66 62 59 58 56 52 47 41 34 31 27 20 15 10 5 1 0 0 1 2 2 1 0 0 0 0 0 0 0 0 0 0 0 0 0 0 0 0 0 0
71 69 66 64 61 56 52 47 42 38 34 31 29 26 21 16 11 6 1 0 0 0 0 0 0 0 0 0 0 0 0 0 0 0 0 0 0 0 0 0 0 0 0
65 65 64 61 57 50 43 35 29 25 23 23 23 22 19 14 10 5 2 0 0 0 0 0 0 0 0 0 0 0 0 0 0 0 0 0 0 0 0 0 0 0 0
57 57 56 54 49 43 35 28 22 16 12 10 11 11 10 8 6 3 1 0 0 0 0 0 0 0 0 0 0 0 0 0 0 0 0 0 0 0 0 0 0 0 0
51 49 45 42 39 34 30 27 24 17 10 5 3 3 3 3 1 1 0 0 0 0 0 0 0 0 0 0 0 0 0 0 0 0 0 0 0 0 0 0 0 0 0
46 41 36 32 28 25 25 26 26 23 17 11 6 2 1 1 0 0 0 0 0 0 0 0 0 0 0 0 0 0 0 0 0 0 0 0 0 0 0 0 0 0 0
35 30 26 23 20 19 20 22 23 24 21 15 9 4 1 0 0 0 0 0 0 0 0 0 0 0 0 0 0 0 0 0 0 0 0 0 0 0 0 0 0 0 0
22 17 14 15 14 14 15 16 17 19 18 13 9 5 2 0 0 0 0 0 0 0 0 0 0 0 0 0 0 0 0 0 0 0 0 0 0 0 0 0 0 0 0
11 7 5 8 10 11 11 12 13 14 13 11 8 4 1 0 0 0 0 0 0 0 0 0 0 0 0 0 0 0 0 0 0 0 0 0 0 0 0 0 0 0 0
4 2 2 4 7 8 9 10 11 10 9 9 7 3 1 0 0 0 0 0 0 0 0 0 0 0 0 0 0 0 0 0 0 0 0 0 0 0 0 0 0 0 0
1 1 1 3 4 5 6 8 8 7 7 8 8 5 2 1 1 0 0 0 0 0 0 0 0 0 0 0 0 0 0 0 0 0 0 0 0 0 0 0 0 0 0
1 1 1 2 2 3 4 5 5 5 5 6 7 5 4 2 1 0 0 0 0 0 0 0 0 0 0 0 0 0 0 0 0 0 0 0 0 0 0 0 0 0 0
2 2 2 2 2 3 4 3 2 3 3 3 5 5 4 3 2 0 0 0 0 0 0 0 0 0 0 0 0 0 0 0 0 0 0 0 0 0 0 0 0 0 0
3 3 3 3 3 4 4 2 1 1 1 1 2 3 3 3 2 0 0 0 0 0 0 0 0 0 0 0 0 0 0 0 0 0 0 0 0 0 0 0 0 0 0
Wind_Speed
8 6 5 6 5 4 3 3 2 2 2 2 2 2 2 2 2 1 2 1 1 1 1 1 1 2 1 1 1 1 1 2 2 0 0 1 2 3 3 3 3 3 4
8 7 6 5 5 5 4 3 3 3 2 2 2 2 2 2 1 1 2 1 0 1 1 1 1 1 1 1 0 0 0 1 2 2 1 1 1 3 3 3 3 4 4
9 8 6 6 5 4 3 3 3 3 3 2 2 2 1 1 1 1 1 1 1 1 1 1 1 1 2 1 0 0 1 1 2 3 2 1 1 2 3 3 4 3 4
8 8 7 6 5 5 4 4 3 3 3 2 2 2 1 1 0 0 0 0 0 0 1 1 2 2 2 1 1 1 1 2 2 3 3 2 2 2 3 3 3 2 2
7 7 7 6 5 5 4 4 4 3 3 3 2 2 2 1 1 1 1 1 1 1 2 2 3 4 4 2 2 2 1 1 2 2 2 2 2 2 2 2 3 3 2
7 7 7 6 6 5 5 5 4 3 3 3 2 2 2 2 2 2 1 0 1 1 1 2 3 4 4 5 5 4 2 2 2 2 2 3 3 2 2 3 3 3 2
6 6 7 7 6 6 6 5 5 4 3 3 3 3 3 3 3 3 2 1 2 2 1 1 1 3 3 3 3 4 3 3 2 2 2 2 3 3 3 4 3 3 2
6 6 6 6 6 6 5 5 4 3 3 2 3 3 3 4 3 2 2 1 2 2 2 2 2 3 3 2 2 3 3 3 2 2 2 2 2 2 3 3 4 3 3
6 5 6 6 6 6 5 5 4 4 3 3 3 3 3 4 3 2 1 1 1 1 2 3 2 3 3 2 1 2 3 2 4 5 4 4 5 5 4 3 4 3 2
5 5 5 5 6 6 5 5 4 4 3 3 3 3 3 3 4 2 0 1 2 2 3 4 5 3 2 2 0 1 2 2 3 3 3 3 4 4 4 3 3 3 2
4 3 4 5 5 4 4 4 4 4 4 3 3 3 3 3 5 3 1 1 1 1 2 3 3 4 3 2 1 0 1 1 2 2 2 2 2 2 2 2 1 2 2
3 3 3 3 3 4 4 4 4 4 4 4 4 3 3 3 4 4 3 1 1 1 1 2 3 4 3 1 0 1 1 1 2 2 2 2 2 2 2 2 1 1 1
3 3 3 3 2 3 4 4 4 3 4 4 4 3 3 3 4 4 3 2 1 1 2 4 3 4 3 2 3 3 2 2 2 2 2 2 2 3 3 2 2 2 1
3 3 3 3 3 3 3 3 3 3 3 3 3 3 3 3 4 4 3 2 2 2 2 3 3 2 3 1 2 3 2 1 1 1 1 2 2 3 3 2 2 2 2
2 2 3 4 4 3 3 2 1 1 0 1 2 2 3 3 2 3 2 2 2 2 2 3 3 3 2 2 2 2 1 1 1 1 1 1 2 2 2 2 2 3 3
1 2 1 2 3 3 4 3 6 4 4 5 3 3 3 5 6 5 4 3 2 2 1 3 3 3 3 2 2 2 2 1 1 1 1 2 2 2 2 2 2 2 2
1 1 1 1 2 3 3 3 3 2 3 4 4 4 4 5 6 5 4 2 2 2 2 2 2 2 2 2 2 2 2 2 1 1 1 2 2 2 2 2 2 2 3
0 1 1 2 2 2 2 2 3 3 3 2 2 3 4 5 5 4 4 3 2 3 3 2 2 1 1 1 1 1 1 1 1 2 1 1 2 2 2 2 2 2 2
0 0 0 0 1 1 1 2 2 3 3 3 3 3 4 4 3 3 4 3 3 3 3 3 2 1 1 1 1 1 1 1 1 1 1 1 1 1 2 2 2 3 3
1 1 1 1 1 1 1 2 2 2 2 2 2 3 4 4 3 4 4 3 2 2 2 2 1 1 1 1 1 1 1 1 1 1 1 1 1 2 2 3 2 3 3
0 1 1 1 1 1 1 1 1 1 1 1 1 2 4 3 3 3 3 2 2 1 1 1 0 0 0 0 1 1 2 1 1 1 1 1 2 2 2 2 2 2 2
0 0 0 0 0 1 0 0 1 1 1 2 2 2 3 2 1 1 2 1 1 1 1 0 0 0 0 1 0 1 1 1 1 1 2 2 2 2 2 2 2 2 2
1 0 0 0 0 0 1 1 1 1 1 1 2 2 2 1 1 1 1 1 1 0 1 1 1 1 1 1 2 1 1 1 1 1 2 2 2 2 2 2 3 3 3
1 1 1 1 1 1 0 0 1 1 1 1 2 2 2 1 1 1 1 1 1 1 1 1 2 2 3 2 2 2 2 2 2 2 3 3 3 3 3 3 3 4 4
1 1 1 1 1 1 1 1 1 2 2 2 2 2 2 2 2 2 1 1 1 1 2 2 2 2 3 4 4 4 3 3 2 3 3 3 3 3 4 5 4 4 4
1 1 1 1 1 2 2 2 2 2 2 2 2 2 3 3 2 2 2 2 2 2 2 3 3 4 4 4 5 4 3 3 3 4 4 3 4 4 5 5 6 5 5
Wind_Direction
175 179 177 173 184 183 190 197 197 213 205 195 198 202 211 221 233 236 252 239 232 267 299 289 263 285 291 266 236 228 206 179 187 197 91 119 112 114 110 101 101 96 100
174 172 175 172 176 184 187 187 191 200 209 202 204 205 216 212 211 244 271 284 284 285 308 314 301 287 295 289 284 257 190 154 159 168 160 135 125 137 128 119 110 101 98
173 172 175 177 179 183 184 177 181 191 195 188 185 188 213 196 173 212 271 324 304 294 305 314 339 360 7 13 15 87 115 124 129 152 163 144 140 140 119 105 97 100 110
171 175 173 178 179 178 179 174 173 179 182 178 171 182 178 155 122 18 349 228 248 326 38 49 53 49 34 359 34 75 99 117 140 147 142 147 140 139 133 133 118 107 107
168 172 172 174 171 172 176 168 165 179 183 167 176 174 158 133 70 33 309 201 160 127 89 79 77 77 66 55 58 75 103 125 145 141 146 146 147 156 158 154 139 134 107
167 173 168 170 170 170 169 162 165 173 168 164 165 141 108 85 75 62 1 4 85 97 106 110 122 102 93 91 92 94 115 149 155 159 162 165 166 163 151 154 145 147 148
169 171 169 171 169 166 172 167 168 169 165 156 148 131 110 97 88 82 57 12 90 89 93 81 70 79 89 97 115 118 97 104 138 155 164 173 165 163 167 165 159 157 150
172 173 170 169 168 165 166 162 158 157 160 156 152 145 134 123 118 93 46 117 105 100 90 96 96 84 55 55 109 106 87 71 96 127 134 141 135 148 165 156 143 126 120
173 175 169 169 167 166 169 162 155 156 158 164 153 146 137 130 139 125 5 179 135 126 110 80 82 98 58 33 108 124 115 97 82 86 88 115 124 137 146 137 146 152 151
176 173 166 164 169 171 167 162 158 159 164 158 148 144 142 135 151 156 232 240 169 145 120 102 75 84 83 38 355 147 141 125 111 106 102 122 139 153 167 170 168 168 156
151 154 161 164 169 162 159 159 155 162 162 157 153 152 146 137 150 159 170 253 233 184 159 134 113 109 96 65 26 57 141 153 149 148 141 140 141 147 165 170 171 175 170
137 134 138 154 172 162 154 156 163 166 166 169 171 172 160 149 143 158 162 173 314 324 105 112 130 142 135 137 149 130 119 160 183 168 156 152 155 158 162 162 156 141 145
148 149 151 151 149 142 150 159 167 174 186 187 184 184 178 153 138 143 160 163 124 69 62 91 127 162 175 191 188 196 201 227 205 181 169 163 157 157 156 154 152 149 149
151 153 157 155 140 132 140 158 166 184 204 200 189 184 175 161 149 157 166 166 148 145 141 133 159 198 241 227 180 211 225 235 218 186 169 159 152 157 171 173 180 185 189
139 150 163 158 142 134 123 83 135 104 76 211 205 183 173 156 131 136 158 164 181 158 163 176 193 192 201 198 192 203 221 205 235 236 185 179 172 175 184 187 189 193 202
131 149 169 159 151 151 145 118 61 77 71 67 67 88 85 110 127 123 122 113 117 125 183 212 206 206 206 205 204 200 197 209 225 227 208 205 204 196 193 194 193 204 214
144 163 183 164 147 149 156 161 153 112 77 66 75 95 118 133 133 137 137 123 130 144 213 227 221 225 224 218 211 210 207 201 205 213 215 211 210 211 198 199 207 220 220
127 164 184 183 169 163 166 173 172 171 162 147 134 152 163 164 160 159 151 148 182 202 221 221 222 209 212 234 240 243 240 196 197 218 220 216 210 214 220 220 215 223 232
129 151 183 162 173 174 172 179 185 179 165 153 146 156 179 173 164 176 176 217 222 211 214 222 221 213 213 218 247 248 248 244 229 222 223 220 218 227 237 241 232 231 242
138 154 193 192 189 198 187 191 189 171 161 163 166 155 150 171 183 183 199 223 236 235 231 227 223 210 196 186 219 252 249 235 224 228 231 222 231 237 242 245 242 236 237
42 117 173 196 205 213 194 183 169 163 168 170 152 135 155 190 191 174 176 203 220 252 265 245 231 259 226 207 233 257 261 256 242 251 247 245 244 242 247 247 250 257 266
78 323 322 323 71 92 92 119 131 149 160 155 149 141 157 184 166 144 148 163 175 232 285 273 213 25 344 345 345 314 315 338 338 318 298 276 260 252 250 253 254 257 257
158 138 121 91 52 118 195 221 209 181 165 152 139 132 137 146 115 99 100 99 102 85 16 16 42 30 19 27 25 26 348 322 310 307 307 305 299 285 276 270 269 272 270
167 165 159 154 173 213 193 129 109 109 114 115 116 120 128 126 118 106 86 86 88 90 64 42 49 31 14 15 21 27 16 351 342 333 316 302 297 297 297 293 282 278 274
189 178 160 136 138 123 98 88 80 77 82 91 93 98 107 102 97 94 84 83 85 85 83 80 67 50 28 23 33 36 18 4 2 345 311 294 293 296 293 286 280 277 276
96 111 128 120 112 102 99 97 87 85 84 79 73 72 76 81 81 78 68 53 52 62 65 73 67 55 42 43 42 36 18 358 343 327 303 286 282 282 287 287 289 284 277